Cloud_Cover
92 91 99 100 100 79 100 100 100 98 100 100 100 74 100 100 100 100 100 100 100 100 100 100 100 100 100 100 100 25 36 4 4 30 86 98 99 100 100 100 100 95 100 100 100 100 100 100 100 100 91 97 69 100
56 96 100 100 73 100 100 100 97 97 100 100 92 100 100 100 100 100 100 100 100 100 100 100 100 100 100 100 100 100 55 27 91 88 80 57 83 90 84 32 94 77 100 100 100 100 100 100 100 100 100 100 100 44
73 100 92 100 94 97 100 100 99 100 100 100 100 100 100 100 100 100 100 100 100 100 100 100 100 100 100 100 100 5 39 100 1 0 4 44 38 15 80 36 84 4 88 99 92 95 53 100 100 100 100 100 100 27
100 100 100 100 100 93 100 100 100 100 100 100 100 100 100 100 100 100 100 100 100 100 100 100 100 100 100 100 100 5 23 97 5 1 0 5 20 44 89 35 0 30 5 8 5 60 5 4 71 100 100 100 94 7
100 100 100 100 100 100 100 100 98 100 99 93 100 100 100 100 100 100 100 100 100 100 100 100 100 100 100 100 94 25 6 100 96 5 3 5 19 6 8 58 5 2 2 0 3 26 5 3 3 5 5 68 11 5
100 100 100 100 100 100 100 100 100 100 88 100 100 100 100 100 100 100 100 100 100 100 100 100 100 100 100 100 82 66 47 96 100 85 5 96 95 5 76 100 5 3 3 0 5 4 1 2 5 3 5 5 3 3
100 100 100 100 100 100 100 87 100 100 100 100 100 100 100 100 100 100 100 100 100 100 100 100 100 100 100 100 60 88 100 99 75 99 100 24 17 6 61 100 85 7 3 4 0 0 1 5 10 3 2 6 4 4
100 100 100 70 100 100 98 100 100 73 69 100 100 100 100 100 100 100 100 100 100 100 100 100 100 100 100 100 93 72 51 98 97 99 100 86 16 39 16 100 99 29 4 1 0 0 1 3 3 39 8 12 4 9
100 100 100 76 83 100 100 97 87 34 99 54 100 100 100 100 100 100 100 100 100 100 100 100 100 100 100 100 82 93 100 100 86 66 93 100 33 88 84 86 88 14 5 0 0 0 1 13 36 41 14 19 20 44
100 100 100 100 100 95 92 100 100 100 100 100 100 100 100 99 100 100 100 100 100 100 100 100 100 100 100 100 100 58 27 77 98 58 88 97 93 79 100 96 62 6 1 2 10 44 35 93 97 99 100 100 95 44
100 100 100 100 100 100 100 100 100 100 100 99 81 91 100 95 100 100 100 100 100 100 100 100 100 100 100 96 49 91 94 88 94 80 14 100 100 79 94 77 7 18 3 5 48 12 88 100 100 100 100 100 24 31
100 100 100 100 100 100 100 100 100 100 99 97 99 98 100 100 100 100 100 100 100 100 100 100 100 100 100 100 98 100 98 79 39 57 62 100 17 40 7 5 5 6 2 10 20 59 87 79 96 98 85 100 91 78
100 99 100 100 100 100 100 100 100 100 100 97 100 100 100 100 100 100 100 100 100 100 100 100 100 100 98 99 100 61 100 82 67 97 97 87 80 28 5 5 5 4 0 4 19 96 100 100 62 99 100 84 93 73
100 100 100 100 100 100 98 100 100 100 100 100 100 100 100 100 100 100 100 100 100 100 100 100 100 100 100 95 100 100 100 100 100 23 100 71 97 71 5 5 0 3 7 14 47 60 95 96 100 78 8 83 44 2
100 100 100 100 100 100 100 100 100 100 100 100 100 100 100 100 100 100 100 100 100 100 100 100 100 100 100 97 99 95 94 96 100 79 77 88 100 79 5 5 5 3 54 16 48 57 83 98 82 66 14 0 3 4
100 100 100 100 100 100 56 100 100 100 100 100 100 100 100 100 100 100 100 100 100 100 100 100 100 100 71 100 99 98 91 100 70 91 87 100 100 25 5 5 7 17 2 1 28 86 94 100 100 100 69 1 1 0
100 100 100 100 100 100 89 100 100 100 100 100 100 100 100 100 100 100 100 100 100 100 100 100 98 96 100 100 100 100 86 84 100 100 100 100 32 22 5 5 23 5 3 4 6 100 100 100 82 30 6 5 5 1
100 100 100 100 100 100 100 100 100 100 100 100 100 100 100 100 100 100 100 100 100 100 98 72 100 99 100 100 100 94 74 100 100 99 100 80 78 5 4 8 87 5 3 0 30 46 14 40 80 43 100 48 5 35
100 100 100 100 96 100 100 100 100 100 100 100 100 100 100 100 100 100 100 100 100 100 98 100 100 84 100 100 100 92 74 99 100 100 56 79 5 5 5 26 15 5 16 7 5 5 37 5 7 46 97 100 5 63
100 100 100 100 100 100 99 100 77 100 100 99 87 77 87 100 100 100 100 100 93 97 100 99 100 100 99 100 99 100 100 100 49 85 72 9 5 8 38 90 71 31 5 62 97 8 100 100 68 10 94 100 72 5
100 100 100 100 100 100 100 100 100 87 99 99 76 96 100 100 100 100 100 88 98 95 88 65 100 100 100 100 95 88 84 99 98 100 50 5 18 100 100 100 100 83 12 100 100 100 100 100 99 50 92 84 89 23
100 100 100 98 100 100 100 100 98 82 50 64 94 100 100 100 100 100 100 72 46 92 73 100 100 100 100 100 100 87 100 88 30 7 10 5 6 100 94 100 100 46 48 100 100 100 100 100 62 97 100 99 82 84
100 100 100 98 99 99 100 100 100 88 80 85 100 100 100 100 100 100 99 65 98 92 67 64 22 51 30 23 83 100 92 15 5 5 7 38 60 100 98 72 60 24 7 12 100 100 100 100 68 98 100 100 100 100
100 100 100 100 100 100 100 100 89 94 100 100 100 100 100 100 100 100 74 54 92 80 10 24 58 72 95 74 100 84 38 9 5 31 36 12 100 100 88 88 53 69 38 60 68 89 100 100 100 96 100 100 100 100
100 99 100 99 64 99 100 99 99 91 90 98 100 99 100 100 99 63 52 98 55 83 32 100 98 100 100 97 43 67 39 24 94 94 89 78 100 100 95 85 99 73 83 25 56 100 100 100 100 100 100 100 100 100
97 61 98 100 98 100 100 99 77 40 44 61 74 80 89 63 62 97 100 84 100 74 82 58 100 97 100 96 54 58 51 100 48 91 88 97 100 100 100 81 48 91 88 99 95 97 97 100 100 100 100 100 100 100
100 81 74 56 87 99 95 96 60 79 25 45 86 64 77 78 84 92 95 100 100 99 89 99 86 25 61 53 100 52 98 88 100 99 100 100 100 100 83 64 84 95 100 47 82 99 100 100 100 100 100 100 100 100
82 99 98 25 86 100 95 97 94 76 76 57 30 60 99 100 100 100 100 100 100 100 97 87 20 20 30 61 75 70 98 97 100 100 100 100 100 94 90 100 100 100 100 100 100 100 100 100 100 100 100 100 100 100
70 93 76 97 77 77 65 100 97 94 100 100 100 100 100 100 100 100 100 100 100 99 100 100 100 83 54 80 94 100 100 100 100 98 100 84 98 100 100 100 100 100 100 100 100 100 100 100 99 92 100 100 100 100
49 93 94 77 90 98 100 100 100 100 100 97 100 100 100 100 100 99 84 82 94 100 100 100 100 95 100 100 100 100 67 94 100 100 100 99 100 100 100 100 100 100 100 100 100 100 100 83 85 100 100 100 100 100
95 49 73 69 100 83 100 100 100 98 100 100 100 100 100 100 100 100 100 100 98 97 86 78 100 100 100 100 100 100 100 100 100 92 72 95 100 100 100 100 100 100 100 100 100 87 74 91 90 100 100 100 100 100
45 23 58 61 60 80 86 100 100 100 100 100 100 100 100 100 100 100 100 100 100 100 100 100 100 100 100 100 100 100 100 100 100 98 99 100 100 100 100 100 100 84 59 15 17 99 99 92 100 100 100 100 100 100
19 92 33 100 92 56 36 60 85 82 100 100 100 100 100 99 100 100 100 100 93 100 100 94 83 66 74 75 100 100 100 100 100 100 94 100 100 78 90 90 100 86 74 9 8 20 72 94 96 94 100 100 79 96